Flag for Germany Weather past 2 weeks in Munich, Bavaria, Germany

Now
45 °F

Light rain. Passing clouds.


Feels Like: 43 °F
Forecast: 39 / 54 °F
Wind: 3 mph from Southeast

Location: Munich / Franz Josef Strauss Airport

Current Time: Oct 25, 2014 at 7:42:04 PM

Latest Report: Oct 25, 2014 at 7:20 PM


Visibility: 4 mi

Pressure: 30.21 "Hg

Humidity: 100%

Dew point: 45 °F

Location of MunichLocation

Historic Weather in Munich — Graph

°F

Munich temperature yesterday

Maximum temperature yesterday: 52 °F (at 1:20 PM)
Minimum temperature yesterday: 36 °F (at 11:50 PM)
Average temperature yesterday: 46 °F

Past Weeks' High & Low Weather Summary

 TemperatureHumidityPressure
High73 °F (Oct 19, 2:50 PM)100% (Oct 10, 10:50 PM)30.27 "Hg (Oct 10, 10:50 PM)
Low34 °F (Oct 25, 12:20 AM)50% (Oct 19, 2:50 PM)29.65 "Hg (Oct 21, 8:20 PM)
Average53 °F88%30.01 "Hg
* Reported Oct 10 6:20 PM — Oct 25 6:20 PM, Munich, Weather by CustomWeather, © 2014

Note: Actual official high and low records may vary slightly from our data, if they occured in-between our weather recording intervals... More about our weather records

Advertising

Munich weather history for previous 24 hours

 ConditionsComfort  
Time TempWeatherWind HumidityBarometerVisibility
6:20 PM
Oct 25
45 °FLight rain. Fog.2 mph93%30.21 "Hg3 mi
5:50 PM45 °FLight rain. Fog.2 mph93%30.21 "Hg3 mi
5:20 PM45 °FLight rain. Low clouds.2 mph93%30.18 "Hg4 mi
4:50 PM45 °FLight rain. Low clouds.2 mph93%30.18 "Hg4 mi
4:20 PM45 °FLight rain. Low clouds.2 mph93%30.18 "Hg5 mi
3:50 PM45 °FLight rain. Low clouds.3 mph93%30.18 "Hg6 mi
3:20 PM45 °FLight rain. Low clouds.6 mph93%30.18 "HgN/A
2:50 PM46 °FLight rain. Overcast.6 mph87%30.18 "HgN/A
2:20 PM46 °FPartly sunny.7 mph87%30.15 "HgN/A
1:50 PM48 °FPartly sunny.6 mph82%30.15 "HgN/A
1:20 PM46 °FPartly sunny.5 mph87%30.15 "HgN/A
12:50 PM46 °FPartly sunny.2 mph82%30.15 "HgN/A
12:20 PM45 °FPartly sunny.3 mph87%30.18 "HgN/A
11:50 AM45 °FBroken clouds.2 mph87%30.18 "HgN/A
11:20 AM43 °FBroken clouds.3 mph93%30.18 "Hg5 mi
10:50 AM41 °FBroken clouds.3 mph100%30.18 "Hg4 mi
10:20 AM39 °FFog.5 mph100%30.15 "Hg3 mi
9:50 AM37 °FScattered clouds.3 mph100%30.15 "Hg1 mi
9:20 AM36 °FFog.3 mph100%30.15 "Hg1 mi
8:50 AM34 °FFog.2 mph100%30.15 "Hg1 mi
8:20 AM34 °FFog.2 mph100%30.15 "Hg0 mi
7:50 AM34 °FFog.No wind100%30.15 "Hg0 mi
7:20 AM34 °FFog.1 mph100%30.12 "Hg0 mi
6:50 AM36 °FFog.1 mph100%30.12 "Hg0 mi
6:20 AM36 °FFog.2 mph100%30.12 "Hg0 mi
5:50 AM37 °FFog.3 mph100%30.12 "Hg0 mi
5:20 AM37 °FFog.3 mph100%30.12 "Hg1 mi
4:50 AM39 °FFog.3 mph100%30.12 "Hg1 mi
4:20 AM39 °FFog.5 mph100%30.12 "Hg0 mi
3:50 AM39 °FFog.5 mph100%30.12 "Hg0 mi
3:20 AM39 °FFog.6 mph100%30.12 "Hg0 mi
2:50 AM41 °FFog.6 mph100%30.15 "Hg0 mi
2:20 AM41 °FFog.5 mph100%30.15 "Hg0 mi
1:50 AM41 °FFog.2 mph100%30.15 "Hg0 mi
1:20 AM39 °FFog.1 mph100%30.15 "Hg0 mi
12:50 AM36 °FChilly.1 mph100%30.15 "Hg1 mi
12:20 AM34 °FChilly.5 mph100%30.15 "Hg2 mi
11:50 PM
Oct 24
36 °FChilly.3 mph93%30.15 "Hg5 mi
11:20 PM37 °FChilly.2 mph93%30.15 "HgN/A
10:50 PM39 °FLight fog.1 mph93%30.15 "HgN/A
10:20 PM39 °FFog.3 mph93%30.15 "HgN/A
9:50 PM41 °FTornado. Clear.2 mph93%30.15 "HgN/A
9:20 PM43 °FClear.2 mph93%30.15 "Hg10 mi
8:50 PM45 °FPassing clouds.2 mph87%30.15 "HgN/A
8:20 PM45 °FPassing clouds.7 mph87%30.15 "HgN/A
7:50 PM46 °FPassing clouds.5 mph82%30.15 "HgN/A
7:20 PM48 °FPassing clouds.7 mph82%30.15 "HgN/A
Weather by CustomWeather, © 2014

See weather overviewHow to use our weather pages